W3OW Weather Reports


Display with metric or nautical units.
time (UTC)temp
F
wind
direction
speed
MPH
gust
MPH
rain 1hr
in
rain 24hr
in
rain mn
in
humidity
%
barometer
mb
20260507150048 57 304 3.0 10.0 0.00 0.02 0.00 46 1012.4
20260507144530 57 5 5.0 14.0 0.00 0.03 0.00 46 1012.6
20260507143013 56 13 2.0 6.0 0.00 0.03 0.00 47 1012.9
20260507141558 55 292 3.0 8.0 0.00 0.03 0.00 51 1013.0
20260507140038 55 315 4.0 8.0 0.00 0.03 0.00 53 1013.2
20260507134521 54 282 2.0 6.0 0.00 0.11 0.00 53 1013.4
20260507133005 54 47 0.0 5.0 0.00 0.11 0.00 54 1013.5
20260507131548 54 346 1.0 4.0 0.00 0.11 0.00 56 1013.5
20260507130026 53 1 2.0 6.0 0.00 0.17 0.00 56 1013.6
20260507124514 53 23 0.0 4.0 0.00 0.17 0.00 57 1013.6
20260507123054 53 314 1.0 5.0 0.00 0.17 0.00 57 1013.5
20260507121543 52 300 2.0 7.0 0.00 0.17 0.00 57 1013.2
20260507120028 52 286 2.0 7.0 0.00 0.17 0.00 55 1013.2
20260507114612 52 315 1.0 4.0 0.00 0.23 0.00 57 1013.2
20260507114503 52 359 2.0 4.0 0.00 0.23 0.00 57 1013.1
20260507113044 52 47 1.0 5.0 0.00 0.23 0.00 55 1013.0
20260507111528 52 21 1.0 5.0 0.00 0.23 0.00 55 1013.2
20260507110011 52 31 2.0 7.0 0.00 0.24 0.00 55 1012.9
20260507104549 52 329 1.0 5.0 0.00 0.24 0.00 55 1012.9
20260507103039 52 323 1.0 5.0 0.00 0.24 0.00 56 1012.5
20260507101514 53 28 2.0 6.0 0.00 0.24 0.00 55 1012.3
20260507100051 53 8 3.0 7.0 0.00 0.24 0.00 56 1012.2
20260507094536 53 53 1.0 6.0 0.00 0.24 0.00 59 1011.8
20260507093010 53 316 2.0 8.0 0.00 0.24 0.00 60 1011.8
20260507091553 54 311 3.0 15.0 0.00 0.24 0.00 62 1011.8
20260507090032 54 11 2.0 9.0 0.00 0.24 0.00 66 1012.0
20260507084522 54 27 2.0 11.0 0.00 0.24 0.00 67 1011.8
20260507083015 54 315 2.0 7.0 0.00 0.24 0.00 69 1011.8
20260507081552 54 278 2.0 6.0 0.00 0.24 0.00 72 1011.7
20260507080030 54 37 2.0 4.0 0.00 0.24 0.00 74 1011.3
20260507074514 54 330 1.0 8.0 0.00 0.24 0.00 73 1011.3
20260507073103 54 37 2.0 8.0 0.00 0.24 0.00 73 1011.2
20260507071539 55 46 1.0 7.0 0.00 0.24 0.00 73 1011.1
20260507070038 55 30 2.0 10.0 0.00 0.24 0.00 73 1011.1
20260507064514 55 26 3.0 9.0 0.00 0.24 0.00 73 1011.4
20260507063047 55 82 1.0 6.0 0.00 0.24 0.00 73 1011.5
20260507061532 55 23 2.0 5.0 0.00 0.24 0.00 73 1011.8
20260507060019 55 352 2.0 6.0 0.00 0.24 0.00 72 1011.7
20260507054558 56 1 1.0 5.0 0.00 0.24 0.00 72 1011.5
20260507053028 56 315 2.0 7.0 0.00 0.24 0.00 72 1011.2
20260507051515 56 316 0.0 8.0 0.00 0.24 0.00 73 1011.5
20260507050056 56 304 2.0 9.0 0.00 0.24 0.00 75 1011.4
20260507044531 56 295 1.0 9.0 0.00 0.24 0.00 78 1011.4
20260507043016 56 20 3.0 10.0 0.00 0.24 0.00 78 1011.0
20260507041553 57 294 5.0 11.0 0.00 0.24 0.00 78 1011.6
20260507040040 57 322 2.0 8.0 0.00 0.24 0.00 79 1010.8